Regional Weather Roundup
Issued by NWS

Home | Current Version | Previous Version | Graphics & Text | Print | Product List | Glossary On
Versions: 1 2 3 4 5 6 7 8 9 10 11 12 13 14 15 16 17 18 19 20 21 22 23 24 25 26 27 28 29 30 31 32 33 34 35 36 37 38 39 40 41 42 43 44 45 46 47 48 49 50
000
ASUS43 KMPX 291910
RWRMN
WEATHER ROUNDUP FOR MINNESOTA
NATIONAL WEATHER SERVICE TWIN CITIES/CHANHASSEN MN
200 PM CDT FRI AUG 29 2014


NOTE: "FAIR" INDICATES FEW OR NO CLOUDS BELOW 12,000 FEET WITH NO
SIGNIFICANT WEATHER AND/OR OBSTRUCTIONS TO VISIBILITY. N/A MEANS
CURRENT SKY AND/OR WEATHER CONDITIONS ARE NOT AVAILABLE.

MNZ060>063-068>070-292000-
   Twin Cities Metro

CITY           SKY/WX    TMP DP  RH WIND       PRES   REMARKS
TWIN CITIES    CLOUDY    79  68  69 SW9       29.77F
ST PAUL        CLOUDY    77  68  73 SW6       29.77F
CRYSTAL        CLOUDY    70  66  87 E3        29.77F
BLAINE         CLOUDY    70  68  94 N6        29.79F
LAKEVILLE      PTSUNNY   77  70  78 S7        29.78F
EDEN PRAIRIE   PTSUNNY   80  70  71 VRB5      29.76F
SOUTH ST PAUL  CLOUDY    79  68  69 S6        29.78S
LAKE ELMO      CLOUDY    73  70  88 N5        29.79F
$$
MNZ001>005-007-008-013>017-022>024-027-028-292000-
   Northwest Minnesota

CITY           SKY/WX    TMP DP  RH WIND       PRES   REMARKS
BEMIDJI        CLOUDY    68  64  87 S5        29.77S
HALLOCK        DRIZZLE   68  66  94 CALM      29.76S
ROSEAU         PTSUNNY   70  64  83 NW7       29.77R
WARROAD        CLOUDY    70  64  83 CALM      29.77R
THIEF RVR FALL CLOUDY    70  64  83 W9        29.77R
CROOKSTON      CLOUDY    68  64  88 W6        29.77S
FOSSTON        CLOUDY    70  63  78 CALM      29.77S
DETROIT LAKES  CLOUDY    70  66  88 S6        29.79S
MOORHEAD       CLOUDY    70  70 100 W5        29.78S
PARK RAPIDS    CLOUDY    68  65  90 CALM      29.78S
MAHNOMEN       CLOUDY    69  65  87 W3        29.77R
$$
MNZ006-009>011-018-025>026-292000-
   North Central Minnesota

CITY           SKY/WX    TMP DP  RH WIND       PRES   REMARKS
BAUDETTE       CLOUDY    67  63  87 S5        29.77R
FLAG ISLAND    CLOUDY    66  63  88 CALM      29.76R
INTL FALLS     CLOUDY    68  61  78 SE5       29.78S
WASKISH        CLOUDY    66  66 100 CALM      29.77S
BIG FORK       CLOUDY    66  63  88 CALM      29.78F
LONGVILLE      DRIZZLE   64  64 100 CALM      29.77S
GRAND RAPIDS   CLOUDY    63  61  94 CALM      29.78S
CRANE LAKE     CLOUDY    63  61  94 CALM      29.80F
ORR            CLOUDY    64  61  88 SE5       29.76F
COOK           CLOUDY    64  61  88 CALM      29.78F
WALKER         CLOUDY    66  63  89 CALM      29.77S
$$
MNZ012-019>021-037-292000-
   Northeast Minnesota

CITY           SKY/WX    TMP DP  RH WIND       PRES   REMARKS
DULUTH         LGT RAIN  64  61  90 S6        29.78F FOG
ELY            CLOUDY    63  59  88 E8        29.79F
HIBBING        CLOUDY    65  61  87 S3        29.79S
EVELETH        CLOUDY    63  61  94 CALM      29.79S
DULUTH HARBOR  DRIZZLE   63  61  94 NE12      29.77F
TWO HARBORS    LGT RAIN  61  55  82 E5        29.77S
SILVER BAY     DRIZZLE   59  59 100 E3        29.78S
GRAND MARAIS     N/A     60  59  96 E8        29.80F
G MARAIS ARPRT RAIN      55  54  94 CALM      29.84F
$$
MNZ029>031-032-039>041-046>048-054>057-064-292000-
   West Central Minnesota

CITY           SKY/WX    TMP DP  RH WIND       PRES   REMARKS
FERGUS FALLS   CLOUDY    70  64  83 CALM      29.77F
WHEATON        PTSUNNY   72  64  78 CALM      29.79S
MORRIS         PTSUNNY   73  66  78 NW6       29.78R
ALEXANDRIA     CLOUDY    70  66  87 W3        29.80R
ELBOW LAKE     CLOUDY    69  66  89 W5        29.78S
WADENA         CLOUDY    66  64  94 CALM      29.78S
GLENWOOD       CLOUDY    72  66  83 W3        29.79S
APPLETON       CLOUDY    75  66  73 CALM      29.77S
BENSON         PTSUNNY   73  68  83 CALM      29.77F
ORTONVILLE     CLOUDY    73  66  78 W6        29.78F
MADISON        MOSUNNY   75  68  78 CALM      29.77F
WILLMAR        FAIR      72  70  94 W5        29.78F
$$
MNZ033>034-036-042>043-049>051-058-059-292000-
   Central Minnesota

CITY           SKY/WX    TMP DP  RH WIND       PRES   REMARKS
ST CLOUD       CLOUDY    72  69  90 SE16      29.76F
SAUK CENTRE    CLOUDY    68  65  90 CALM      29.79R
PAYNESVILLE    HVY RAIN  69  67  93 CALM      29.78S
AITKIN         CLOUDY    70  63  78 CALM      29.77R
PINE RIVER     CLOUDY    68  64  88 CALM      29.80F
BRAINERD       CLOUDY    67  65  93 CALM      29.77F
STAPLES        CLOUDY    68  64  88 CALM      29.78S
LONG PRAIRIE   LGT RAIN  68  64  88 CALM      29.79R
LITTLE FALLS   LGT RAIN  66  64  94 CALM      29.78S
LITCHFIELD     CLOUDY    73  73 100 CALM      29.78R
BUFFALO        CLOUDY    71  68  90 NE3       29.79S
MAPLE LAKE     CLOUDY    70  69  96 CALM      29.78S
$$
MNZ037-044-045-052-053-292000-
   East Central Minnesota

CITY           SKY/WX    TMP DP  RH WIND       PRES   REMARKS
PRINCETON      LGT RAIN  70  66  88 S6        29.79R
MORA           RAIN      64  64 100 CALM      29.79F
CAMBRIDGE      LGT RAIN  70  63  78 S7        29.77F
RUSH CITY      LGT RAIN  68  67  95 SE5       29.76F
MOOSE LAKE     CLOUDY    64  64 100 CALM      29.76S
HINCKLEY       LGT RAIN  68  68 100 S7        29.79R
CLOQUET        LGT RAIN  64  63  94 CALM      29.78S
MCGREGOR       CLOUDY    64  63  94 CALM      29.79R
$$
MNZ071>073-080-081-089-090-097-098-292000-
   Southwest Minnesota

CITY           SKY/WX    TMP DP  RH WIND       PRES   REMARKS
MONTEVIDEO     CLOUDY    75  75 100 CALM      29.78F
GRANITE FALLS  CLOUDY    72  69  91 NW6       29.79S
CANBY          CLOUDY    74  67  78 CALM      29.79F
MARSHALL       CLOUDY    73  66  78 N10       29.77S
REDWOOD FALLS  CLOUDY    74  71  91 N5        29.76F
OLIVIA         CLOUDY    73  70  88 NW6       29.76S
PIPESTONE      CLOUDY    73  68  83 SW6       29.80R
WINDOM         CLOUDY    73  68  83 SW8       29.80S
WORTHINGTON    CLOUDY    72  70  94 SW6       29.81F
JACKSON        CLOUDY    72  68  88 SW6       29.81S
TRACY          CLOUDY    76  70  82 CALM      29.78S
SLAYTON        CLOUDY    73  69  85 CALM      29.81S
$$
MNZ065>067-074>077-082>085-091>093-292000-
   South Central Minnesota

CITY           SKY/WX    TMP DP  RH WIND       PRES   REMARKS
MANKATO        PTSUNNY   77  66  69 SW9       29.78F
NEW ULM        DRIZZLE   73  72  94 S7        29.78S
ST JAMES       LGT RAIN  77  70  78 S7        29.79F
FAIRMONT       CLOUDY    70  66  88 S7        29.79F
GLENCOE        PTSUNNY   76  69  79 S3        29.77F
FARIBAULT      PTSUNNY   81  66  61 SW5       29.79F
OWATONNA       PTSUNNY   81  68  65 S9        29.79F
WASECA         CLOUDY    77  64  65 SW8       29.81S
ALBERT LEA     CLOUDY    81  70  69 S9        29.79F
$$
MNZ078>079-086>088-094>096-292000-
   Southeast Minnesota

CITY           SKY/WX    TMP DP  RH WIND       PRES   REMARKS
ROCHESTER      PTSUNNY   80  69  69 SW12G21   29.82F
RED WING       PTSUNNY   84  70  61 SW8       29.77F
STANTON        PTSUNNY   81  69  67 SW9       29.77F
DODGE CENTER   PTSUNNY   82  72  69 S13       29.81F
WINONA         SUNNY     82  70  65 S3        29.79F
AUSTIN         CLOUDY    81  72  74 S8        29.80F
PRESTON        MOSUNNY   82  74  78 S5        29.82F
$$
ABBREVIATIONS USED IN REMARKS
   TC - TEMPERATURES IN CELSIUS
  WCI - WIND CHILL INDEX
   HX - HEAT INDEX
  VSB - VISIBILITY
$$


USA.gov is the U.S. government's official web portal to all federal, state and local government web resources and services.